Location: ?????????
(53.2086°N, 54.0693°E)
Time: 11:46:28
(UTC+00:00)

ATLAS 2AS CENTAUR R/B - Pass Details

Date: 08 December 2019
Orbit: 927 x 1285 km, 63.7° (Epoch: 19 January)

Event Time Altitude Azimuth Distance (km) Brightness Sun altitude
Rises 16:33:54 0° 284° (WNW) 4,263 6.8 -38.5°
Reaches altitude 10° 16:37:01 10° 293° (WNW) 3,288 5.9 -39.0°
Enters shadow 16:43:22 37° 343° (NNW) 1,853 4.0 -39.9°
